Location: Melbourne
(37.8170°S, 144.9670°E)
Time: 15:29:11
(UTC+11:00)

ISS - Visible Passes

Search period start: 25 February 2017 00:00
Search period end: 07 March 2017 00:00
Orbit: 399 x 408 km, 51.6° (Epoch: 25 February)

Date Brightness Start Highest point End Pass type
(mag) Time Alt. Az. Time Alt. Az. Time Alt. Az.
25 Feb -2.0 21:40:18 10° WNW 21:43:27 41° SW 21:45:53 15° SSE visible
26 Feb -3.2 20:47:36 10° NW 20:50:53 82° SW 20:54:12 10° SE visible
26 Feb -0.4 22:25:49 10° WSW 22:27:47 15° SSW 22:28:45 13° S visible
27 Feb -0.8 21:32:24 10° W 21:35:01 21° SSW 21:37:38 10° SSE visible
28 Feb -1.6 20:39:15 10° W 20:42:18 34° SSW 20:45:22 10° SE visible
28 Feb 0.0 22:19:21 10° SSW 22:19:34 10° SSW 22:19:47 10° S visible
01 Mar -0.3 21:24:59 10° SW 21:26:40 13° SSW 21:28:22 10° S visible
02 Mar -0.6 20:31:24 10° WSW 20:33:49 19° SSW 20:36:16 10° SSE visible
04 Mar -0.4 20:24:03 10° SW 20:25:26 12° SSW 20:26:50 10° S visible
